Location: Newark
(45.5000°N, 11.4167°E)
Time: 16:44:22
(UTC+00:00)

Transit 2A Rocket - Pass Details

Date: 25 August 2019
Orbit: 592 x 911 km, 66.7° (Epoch: 22 September)

Event Time Altitude Azimuth Distance (km) Brightness Sun altitude
Rises 02:54:06 0° 324° (NW) 3,005 8.1 -15.4°
Reaches altitude 10° 02:56:30 10° 320° (NW) 2,046 7.2 -15.1°
Maximum altitude 03:00:59 56° 243° (WSW) 735 4.6 -14.4°
Drops below altitude 10° 03:05:11 10° 165° (SSE) 1,930 6.9 -13.8°
Sets 03:07:24 0° 161° (SSE) 2,817 7.8 -13.5°
